ETH333 HUEN-HAAB

Flight info

Callsign ETH333
Flight time N/A
Altitude 37000
Route IMVIP1B IMVIP UL432 EKBUL EKBUL2A
Aircraft B38M/M-SDE1FGHILORVWXY/HB1

Departure

Time 2026-04-26 14:00
Airport Entebbe International Airport (HUEN)

Arrival

Time N/A
Airport Addis Ababa Bole International Airport (HAAB)
Time Latitude Longitude Altitude Speed Heading
2026-04-26 13:23 0.04550 32.44183 3782 ft 0 kts 82°
2026-04-26 13:50 0.04550 32.44182 3782 ft 0 kts 82°
2026-04-26 13:51 0.04547 32.44161 3782 ft 4 kts 82°
2026-04-26 13:51 0.04543 32.44134 3782 ft 3 kts 82°
2026-04-26 13:51 0.04538 32.44113 3785 ft 4 kts 57°
2026-04-26 13:51 0.04520 32.44101 3784 ft 4 kts
2026-04-26 13:52 0.04503 32.44102 3782 ft 0 kts 352°
2026-04-26 13:52 0.04502 32.44102 3782 ft 0 kts 352°
2026-04-26 13:55 0.04523 32.44099 3788 ft 7 kts 353°
2026-04-26 13:56 0.04593 32.44089 3786 ft 12 kts 351°
2026-04-26 13:56 0.04682 32.44077 3785 ft 13 kts 352°
2026-04-26 13:56 0.04778 32.44064 3782 ft 14 kts 352°
2026-04-26 13:56 0.04857 32.44044 3789 ft 9 kts 322°
2026-04-26 13:57 0.04876 32.43995 3792 ft 7 kts 270°
2026-04-26 13:57 0.04872 32.43948 3791 ft 7 kts 263°
2026-04-26 13:57 0.04876 32.43898 3795 ft 8 kts 307°
2026-04-26 13:57 0.04925 32.43881 3791 ft 8 kts 351°
2026-04-26 13:58 0.04996 32.43871 3787 ft 12 kts 353°
2026-04-26 13:58 0.05057 32.43836 3786 ft 11 kts 288°
2026-04-26 13:58 0.05050 32.43757 3785 ft 11 kts 263°
2026-04-26 13:58 0.05027 32.43698 3786 ft 9 kts 203°
2026-04-26 13:59 0.04942 32.43705 3787 ft 24 kts 172°
2026-04-26 13:59 0.04572 32.43757 3791 ft 81 kts 172°
2026-04-26 13:59 0.03853 32.43858 3788 ft 128 kts 172°
2026-04-26 14:00 0.00438 32.44376 4600 ft 180 kts 173°
2026-04-26 14:00 -0.00824 32.44544 5015 ft 188 kts 172°
2026-04-26 14:00 -0.01717 32.44663 5151 ft 204 kts 172°
2026-04-26 14:01 -0.03747 32.44936 5539 ft 235 kts 172°
2026-04-26 14:01 -0.05431 32.45164 5968 ft 254 kts 171°
2026-04-26 14:01 -0.07250 32.45412 6406 ft 272 kts 172°
2026-04-26 14:01 -0.09140 32.45670 7089 ft 275 kts 171°
2026-04-26 14:02 -0.10980 32.46224 7793 ft 279 kts 150°
2026-04-26 14:02 -0.12405 32.47521 8525 ft 282 kts 122°
2026-04-26 14:02 -0.13077 32.49363 9218 ft 287 kts 96°
2026-04-26 14:02 -0.12884 32.51323 9902 ft 292 kts 71°
2026-04-26 14:03 -0.12071 32.53215 10395 ft 304 kts 69°
2026-04-26 14:03 -0.11328 32.55251 10752 ft 318 kts 70°
2026-04-26 14:03 -0.10559 32.57357 10874 ft 325 kts 70°
2026-04-26 14:03 -0.09774 32.59477 10933 ft 326 kts 70°
2026-04-26 14:04 -0.08914 32.61538 11100 ft 327 kts 59°
2026-04-26 14:04 -0.07477 32.63289 11839 ft 330 kts 42°
2026-04-26 14:04 -0.05732 32.64805 12519 ft 334 kts 43°
2026-04-26 14:04 -0.04010 32.66374 13307 ft 336 kts 43°
2026-04-26 14:05 -0.02282 32.67963 14045 ft 339 kts 43°
2026-04-26 14:05 -0.00541 32.69574 14716 ft 343 kts 43°
2026-04-26 14:05 0.01209 32.71198 15445 ft 345 kts 44°
2026-04-26 14:05 0.02973 32.72836 16089 ft 348 kts 44°
2026-04-26 14:06 0.04759 32.74495 16732 ft 352 kts 44°
2026-04-26 14:06 0.06561 32.76169 17360 ft 355 kts 43°
2026-04-26 14:06 0.08380 32.77857 17976 ft 359 kts 43°
2026-04-26 14:06 0.10222 32.79567 18534 ft 362 kts 43°
2026-04-26 14:07 0.12074 32.81287 19047 ft 365 kts 43°
2026-04-26 14:07 0.13942 32.83021 19576 ft 368 kts 43°
2026-04-26 14:07 0.15826 32.84771 20059 ft 371 kts 43°
2026-04-26 14:07 0.17721 32.86530 20560 ft 374 kts 43°
2026-04-26 14:08 0.19608 32.88283 21050 ft 376 kts 43°
2026-04-26 14:08 0.21530 32.90068 21553 ft 378 kts 43°
2026-04-26 14:08 0.23463 32.91862 22057 ft 380 kts 43°
2026-04-26 14:08 0.25409 32.93669 22539 ft 383 kts 43°
2026-04-26 14:09 0.27370 32.95490 22987 ft 386 kts 43°
2026-04-26 14:09 0.29346 32.97325 23449 ft 389 kts 43°
2026-04-26 14:09 0.31332 32.99169 23839 ft 391 kts 43°
2026-04-26 14:09 0.33331 33.01025 24232 ft 393 kts 43°
2026-04-26 14:10 0.35339 33.02889 24616 ft 395 kts 43°
2026-04-26 14:10 0.37357 33.04763 24997 ft 397 kts 43°
2026-04-26 14:10 0.39387 33.06648 25365 ft 399 kts 43°
2026-04-26 14:10 0.41426 33.08541 25738 ft 401 kts 43°
2026-04-26 14:11 0.45537 33.12358 26475 ft 406 kts 43°
2026-04-26 14:11 0.47608 33.14281 26842 ft 408 kts 43°
2026-04-26 14:11 0.49691 33.16216 27187 ft 410 kts 43°
2026-04-26 14:12 0.51784 33.18158 27544 ft 412 kts 43°
2026-04-26 14:12 0.53886 33.20111 27877 ft 414 kts 43°
2026-04-26 14:12 0.56008 33.22082 28229 ft 416 kts 43°
2026-04-26 14:12 0.58132 33.24054 28561 ft 418 kts 43°
2026-04-26 14:13 0.62414 33.28030 29197 ft 423 kts 43°
2026-04-26 14:13 0.64580 33.30041 29526 ft 424 kts 43°
2026-04-26 14:13 0.66748 33.32054 29857 ft 426 kts 43°
2026-04-26 14:14 0.68923 33.34074 30143 ft 428 kts 43°
2026-04-26 14:14 0.71111 33.36106 30393 ft 430 kts 43°
2026-04-26 14:14 0.73306 33.38144 30646 ft 432 kts 43°
2026-04-26 14:14 0.75483 33.40166 30896 ft 434 kts 43°
2026-04-26 14:15 0.77697 33.42222 31141 ft 436 kts 43°
2026-04-26 14:15 0.79922 33.44288 31391 ft 437 kts 43°
2026-04-26 14:15 0.82156 33.46363 31642 ft 439 kts 43°
2026-04-26 14:15 0.84399 33.48446 31885 ft 441 kts 43°
2026-04-26 14:16 0.86652 33.50539 32126 ft 443 kts 43°
2026-04-26 14:16 0.88914 33.52640 32361 ft 444 kts 43°
2026-04-26 14:16 0.91184 33.54747 32593 ft 446 kts 43°
2026-04-26 14:16 0.93461 33.56862 32821 ft 448 kts 43°
2026-04-26 14:17 0.95749 33.58987 33045 ft 450 kts 43°
2026-04-26 14:17 0.98038 33.61114 33342 ft 449 kts 43°
2026-04-26 14:17 1.00331 33.63243 33595 ft 450 kts 43°
2026-04-26 14:17 1.02626 33.65375 33883 ft 450 kts 43°
2026-04-26 14:18 1.04920 33.67505 34155 ft 450 kts 43°
2026-04-26 14:18 1.07211 33.69632 34416 ft 449 kts 43°
2026-04-26 14:18 1.09495 33.71753 34718 ft 447 kts 43°
2026-04-26 14:18 1.11769 33.73865 35019 ft 446 kts 43°
2026-04-26 14:19 1.14037 33.75972 35265 ft 446 kts 43°
2026-04-26 14:19 1.16311 33.78083 35510 ft 445 kts 43°
2026-04-26 14:19 1.18574 33.80185 35762 ft 445 kts 43°
2026-04-26 14:19 1.20840 33.82290 36010 ft 444 kts 43°
2026-04-26 14:20 1.23105 33.84393 36249 ft 444 kts 43°
2026-04-26 14:20 1.25369 33.86497 36475 ft 444 kts 43°
2026-04-26 14:20 1.27629 33.88596 36702 ft 443 kts 43°
2026-04-26 14:20 1.29885 33.90691 36911 ft 443 kts 43°
2026-04-26 14:21 1.32141 33.92788 36940 ft 443 kts 44°
2026-04-26 14:21 1.36633 33.96961 36925 ft 440 kts 44°
2026-04-26 14:22 1.41124 34.01134 36925 ft 441 kts 44°
2026-04-26 14:22 1.45616 34.05307 36927 ft 441 kts 44°